When you browse on this site, cookies collect data to enhance your experience and personalize the content and advertising you see.
Visit our Privacy Policy to learn more. By continuing to use the site, you agree to this use of cookies and data.

Meteo orario Golyn

Oggi, 10 Luglio, Venerdi

Tempo Temperatura Precipitazioni Vento Pressione Umidità
00:00 +11°C° 0 mm 3 m/s 749 mm Hg 88%
01:00 +11°C° 0 mm 3 m/s 748 mm Hg 89%
02:00 +11°C° 0 mm 3 m/s 748 mm Hg 90%
03:00 +12°C° 0 mm 4 m/s 748 mm Hg 88%
04:00 +12°C° 0 mm 4 m/s 747 mm Hg 86%
05:00 +13°C° 0 mm 4 m/s 747 mm Hg 84%
06:00 +14°C° 0.2 mm 5 m/s 746 mm Hg 87%
07:00 +14°C° 0.2 mm 5 m/s 746 mm Hg 89%
08:00 +15°C° 0.2 mm 5 m/s 746 mm Hg 92%
09:00 +16°C° 0.1 mm 5 m/s 746 mm Hg 91%
10:00 +17°C° 0.1 mm 5 m/s 746 mm Hg 91%
11:00 +19°C° 0.1 mm 5 m/s 746 mm Hg 90%
12:00 +20°C° 0.8 mm 5 m/s 745 mm Hg 89%
13:00 +21°C° 0.8 mm 6 m/s 745 mm Hg 87%
14:00 +22°C° 0.8 mm 6 m/s 745 mm Hg 86%
15:00 +22°C° 0.7 mm 5 m/s 745 mm Hg 87%
16:00 +22°C° 0.7 mm 5 m/s 745 mm Hg 87%
17:00 +23°C° 0.7 mm 4 m/s 745 mm Hg 87%
18:00 +22°C° 0.6 mm 4 m/s 745 mm Hg 89%
19:00 +21°C° 0.6 mm 3 m/s 745 mm Hg 91%
20:00 +20°C° 0.6 mm 3 m/s 745 mm Hg 92%
21:00 +20°C° 0.4 mm 3 m/s 745 mm Hg 93%
22:00 +20°C° 0.4 mm 3 m/s 745 mm Hg 94%
23:00 +19°C° 0.4 mm 3 m/s 745 mm Hg 95%

Domani, 11 Luglio, Sabato

Tempo Temperatura Precipitazioni Vento Pressione Umidità
00:00 +19°C° 0.2 mm 4 m/s 745 mm Hg 95%
01:00 +19°C° 0.2 mm 5 m/s 745 mm Hg 94%
02:00 +20°C° 0.2 mm 5 m/s 745 mm Hg 93%
03:00 +19°C° 0.4 mm 5 m/s 745 mm Hg 94%
04:00 +19°C° 0.4 mm 5 m/s 745 mm Hg 95%
05:00 +19°C° 0.4 mm 5 m/s 746 mm Hg 96%
06:00 +19°C° 0.4 mm 5 m/s 746 mm Hg 94%
07:00 +19°C° 0.4 mm 5 m/s 747 mm Hg 91%
08:00 +20°C° 0.4 mm 5 m/s 747 mm Hg 88%
09:00 +20°C° 0 mm 4 m/s 748 mm Hg 83%
10:00 +20°C° 0 mm 4 m/s 748 mm Hg 77%
11:00 +20°C° 0 mm 4 m/s 749 mm Hg 72%
12:00 +21°C° 0 mm 4 m/s 749 mm Hg 69%
13:00 +21°C° 0 mm 3 m/s 749 mm Hg 66%
14:00 +21°C° 0 mm 3 m/s 749 mm Hg 64%
15:00 +20°C° 0 mm 3 m/s 749 mm Hg 67%
16:00 +20°C° 0 mm 3 m/s 749 mm Hg 71%
17:00 +19°C° 0 mm 3 m/s 750 mm Hg 74%
18:00 +18°C° 0 mm 3 m/s 750 mm Hg 74%
19:00 +17°C° 0 mm 3 m/s 750 mm Hg 74%
20:00 +16°C° 0 mm 3 m/s 750 mm Hg 74%
21:00 +16°C° 0 mm 3 m/s 751 mm Hg 78%
22:00 +14°C° 0 mm 3 m/s 751 mm Hg 83%
23:00 +13°C° 0 mm 4 m/s 751 mm Hg 87%

Dopodomani, 12 Luglio, Domenica

Tempo Temperatura Precipitazioni Vento Pressione Umidità
00:00 +13°C° 0 mm 3 m/s 751 mm Hg 86%
01:00 +12°C° 0 mm 3 m/s 751 mm Hg 85%
02:00 +12°C° 0 mm 3 m/s 751 mm Hg 85%
03:00 +12°C° 0.4 mm 3 m/s 751 mm Hg 88%
04:00 +12°C° 0.4 mm 3 m/s 751 mm Hg 92%
05:00 +12°C° 0.4 mm 2 m/s 751 mm Hg 95%
06:00 +12°C° 1 mm 2 m/s 751 mm Hg 95%
07:00 +12°C° 1 mm 2 m/s 752 mm Hg 96%
08:00 +12°C° 1 mm 2 m/s 752 mm Hg 96%
09:00 +12°C° 1 mm 2 m/s 752 mm Hg 94%
10:00 +13°C° 1 mm 2 m/s 752 mm Hg 93%
11:00 +13°C° 1 mm 2 m/s 752 mm Hg 92%
12:00 +14°C° 0.2 mm 2 m/s 752 mm Hg 84%
13:00 +15°C° 0.2 mm 2 m/s 752 mm Hg 77%
14:00 +17°C° 0.2 mm 2 m/s 752 mm Hg 70%
15:00 +17°C° 0 mm 2 m/s 752 mm Hg 69%
16:00 +17°C° 0 mm 2 m/s 752 mm Hg 69%
17:00 +17°C° 0 mm 2 m/s 751 mm Hg 68%
18:00 +17°C° 0 mm 2 m/s 751 mm Hg 73%
19:00 +16°C° 0 mm 1 m/s 751 mm Hg 79%
20:00 +15°C° 0 mm 1 m/s 751 mm Hg 84%
21:00 +15°C° 0.1 mm 2 m/s 751 mm Hg 87%
22:00 +14°C° 0.1 mm 2 m/s 751 mm Hg 90%
23:00 +13°C° 0.1 mm 2 m/s 751 mm Hg 92%

13 Luglio, Lunedi

Tempo Temperatura Precipitazioni Vento Pressione Umidità
00:00 +13°C° 0 mm 2 m/s 751 mm Hg 93%
01:00 +11°C° 0 mm 3 m/s 751 mm Hg 93%
02:00 +11°C° 0 mm 3 m/s 751 mm Hg 94%
03:00 +11°C° 0 mm 3 m/s 751 mm Hg 93%
04:00 +10°C° 0 mm 3 m/s 751 mm Hg 93%
05:00 +10°C° 0 mm 3 m/s 751 mm Hg 92%
06:00 +11°C° 0 mm 3 m/s 751 mm Hg 89%
07:00 +12°C° 0 mm 3 m/s 751 mm Hg 85%
08:00 +13°C° 0 mm 3 m/s 751 mm Hg 81%
09:00 +14°C° 0 mm 3 m/s 751 mm Hg 75%
10:00 +17°C° 0 mm 3 m/s 751 mm Hg 69%
11:00 +18°C° 0 mm 3 m/s 750 mm Hg 64%
12:00 +18°C° 0 mm 3 m/s 750 mm Hg 63%
13:00 +19°C° 0 mm 4 m/s 750 mm Hg 62%
14:00 +19°C° 0 mm 4 m/s 750 mm Hg 62%
15:00 +19°C° 0 mm 3 m/s 749 mm Hg 62%
16:00 +19°C° 0 mm 3 m/s 749 mm Hg 61%
17:00 +19°C° 0 mm 3 m/s 749 mm Hg 61%
18:00 +18°C° 0 mm 2 m/s 749 mm Hg 67%
19:00 +17°C° 0 mm 2 m/s 748 mm Hg 73%
20:00 +15°C° 0 mm 2 m/s 748 mm Hg 79%
21:00 +14°C° 0 mm 2 m/s 748 mm Hg 81%
22:00 +14°C° 0 mm 2 m/s 748 mm Hg 82%
23:00 +13°C° 0 mm 2 m/s 748 mm Hg 84%

14 Luglio, Martedi

Tempo Temperatura Precipitazioni Vento Pressione Umidità
00:00 +12°C° 0 mm 2 m/s 748 mm Hg 86%
01:00 +12°C° 0 mm 2 m/s 748 mm Hg 87%
02:00 +10°C° 0 mm 2 m/s 748 mm Hg 88%
03:00 +10°C° 0 mm 2 m/s 748 mm Hg 90%
04:00 +10°C° 0 mm 2 m/s 748 mm Hg 91%
05:00 +10°C° 0 mm 2 m/s 748 mm Hg 92%
06:00 +12°C° 0 mm 3 m/s 748 mm Hg 87%
07:00 +14°C° 0 mm 3 m/s 748 mm Hg 82%
08:00 +17°C° 0 mm 3 m/s 748 mm Hg 77%
09:00 +18°C° 0 mm 3 m/s 748 mm Hg 71%
10:00 +20°C° 0 mm 4 m/s 748 mm Hg 65%
11:00 +21°C° 0 mm 4 m/s 748 mm Hg 59%
12:00 +22°C° 0 mm 4 m/s 748 mm Hg 58%
13:00 +22°C° 0 mm 4 m/s 747 mm Hg 57%
14:00 +22°C° 0 mm 4 m/s 747 mm Hg 56%
15:00 +22°C° 0.1 mm 4 m/s 747 mm Hg 60%
16:00 +22°C° 0.1 mm 4 m/s 747 mm Hg 63%
17:00 +21°C° 0.1 mm 4 m/s 747 mm Hg 67%
18:00 +20°C° 0.1 mm 3 m/s 747 mm Hg 73%
19:00 +18°C° 0.1 mm 3 m/s 747 mm Hg 79%
20:00 +17°C° 0.1 mm 2 m/s 747 mm Hg 85%
21:00 +16°C° 0 mm 2 m/s 747 mm Hg 87%
22:00 +14°C° 0 mm 2 m/s 747 mm Hg 88%
23:00 +13°C° 0 mm 2 m/s 747 mm Hg 89%

15 Luglio, Mercoledi

Tempo Temperatura Precipitazioni Vento Pressione Umidità
00:00 +13°C° 0 mm 2 m/s 747 mm Hg 90%
01:00 +12°C° 0 mm 2 m/s 747 mm Hg 91%
02:00 +12°C° 0 mm 2 m/s 747 mm Hg 92%
03:00 +10°C° 0 mm 2 m/s 747 mm Hg 91%
04:00 +10°C° 0 mm 2 m/s 747 mm Hg 91%
05:00 +10°C° 0 mm 2 m/s 747 mm Hg 91%
06:00 +13°C° 0 mm 2 m/s 747 mm Hg 85%
07:00 +14°C° 0 mm 2 m/s 747 mm Hg 80%
08:00 +16°C° 0 mm 3 m/s 747 mm Hg 74%
09:00 +17°C° 0 mm 3 m/s 747 mm Hg 68%
10:00 +19°C° 0 mm 3 m/s 747 mm Hg 62%
11:00 +20°C° 0 mm 4 m/s 747 mm Hg 56%
12:00 +21°C° 0 mm 4 m/s 747 mm Hg 55%
13:00 +21°C° 0 mm 4 m/s 747 mm Hg 55%
14:00 +22°C° 0 mm 4 m/s 747 mm Hg 54%
15:00 +22°C° 0 mm 3 m/s 747 mm Hg 56%
16:00 +21°C° 0 mm 3 m/s 746 mm Hg 58%
17:00 +21°C° 0 mm 3 m/s 746 mm Hg 60%
18:00 +20°C° 0 mm 3 m/s 746 mm Hg 66%
19:00 +18°C° 0 mm 2 m/s 746 mm Hg 72%
20:00 +18°C° 0 mm 1 m/s 746 mm Hg 78%
21:00 +16°C° 0 mm 1 m/s 746 mm Hg 80%
22:00 +14°C° 0 mm 1 m/s 747 mm Hg 81%
23:00 +13°C° 0 mm 1 m/s 747 mm Hg 83%
Mostrare altro